Regional Weather Roundup
Issued by NWS Mt. Holly, NJ

Home | Current Version | Previous Version | Text Only | Print | Product List | Glossary On
Versions: 1 2 3 4 5 6 7 8 9 10 11 12 13 14 15 16 17 18 19 20 21 22 23 24 25 26 27 28 29 30 31 32 33 34 35 36 37 38 39 40 41 42 43 44 45 46 47 48 49
000
ASUS41 KPHI 261610
RWRPHI

REGIONAL WEATHER ROUNDUP
NATIONAL WEATHER SERVICE MOUNT HOLLY NJ
1100 AM EST MON JAN 26 2015

NOTE:  "FAIR" INDICATES FEW OR NO CLOUDS BELOW 12,000 FEET WITH NO
SIGNIFICANT WEATHER AND/OR OBSTRUCTIONS TO VISIBILITY.

 * = STATION DOES NOT REPORT PRECIPITATION (E.G. RAIN, SNOW, ETC.)
        OR FOG.

NJZ015>026-261700-
SOUTHERN NEW JERSEY

CITY           SKY/WX    TMP DP  RH WIND       PRES   REMARKS
POMONA         MIX PCPN  35  33  92 NE20G29   29.80F WCI  24
RIO GRANDE*    CLOUDY   N/A N/A N/A NE22G32   29.73F
MILLVILLE      CLOUDY    35  32  88 NE14G22   29.81S WCI  26
WRIGHTSTOWN    LGT SNOW  29  26  90 NE17      29.86F FOG     WCI  17
MOUNT HOLLY    LGT SNOW  28  24  85 NE9G20    29.88F FOG     WCI  19
TRENTON        LGT SNOW  26  20  77 NE13G23   29.90F WCI  15

$$
NJZ001>014-261700-
NORTHERN NEW JERSEY

CITY           SKY/WX    TMP DP  RH WIND       PRES   REMARKS
SUSSEX         LGT SNOW  15   8  73 NE14      29.97F VSB 1   WCI   0
ANDOVER*         N/A     16  11  80 VRB5      29.95F WCI   9
MORRISTOWN     LGT SNOW  21  18  86 NE12G20   29.99F WCI   9
NEWARK         LGT SNOW  24  19  81 NE18      29.99S WCI  10
TETERBORO      LGT SNOW  22  15  75 NE10G18   29.99F FOG     WCI  11
CALDWELL       LGT SNOW  20  15  81 NE15      29.99F WCI   6
SOMERVILLE     CLOUDY    24  16  71 NE13G22   29.94F HAZE    WCI  12
ALLAIRE*       CLOUDY    28  21  74 NE16G25   29.90  WCI  17
TOMS RIVER*    CLOUDY    32  30  93 NE16      29.88F VSB 1   WCI  21

$$
PAZ043-044-047-054-055-060>062-066>071-261700-
EASTERN PENNSYLVANIA

CITY           SKY/WX    TMP DP  RH WIND       PRES   REMARKS
PHILADELPHIA   LGT SNOW  29  24  82 NE16      29.87F WCI  17
NORTH PHILA    LGT SNOW  30  22  72 NE21      29.90F WCI  17
BLUE BELL      CLOUDY    28  21  74 E10G17    29.88F WCI  19
DOYLESTOWN     LGT SNOW  22  19  89 NE12      29.89F FOG     WCI  10
POTTSTOWN      LGT SNOW  22  17  81 NE12      29.90F WCI  10
LANCASTER      LGT SNOW  23  18  81 E14       29.86F WCI  11
COATESVILLE    LGT SNOW  25  23  93 NE7       29.84F WCI  17
READING        LGT SNOW  21  16  81 NE12      29.89F WCI   9
ALLENTOWN      LGT SNOW  19  12  73 NE16      29.92F WCI   5
MOUNT POCONO   LGT SNOW  14   9  80 E16G22    29.83S WCI  -2
HAZLETON       CLOUDY    21  14  73 E9G20     29.83F WCI  11
WILKES BARRE   LGT SNOW  21  12  68 E13G20    29.88F WCI   9

$$
DEZALL-MDZ008-012-015-019-020-261700-
DELAWARE AND EASTERN MARYLAND

CITY           SKY/WX    TMP DP  RH WIND       PRES   REMARKS
WILMINGTON     LGT SNOW  29  25  85 NE22G30   29.85F FOG     WCI  15
DOVER          CLOUDY    35  35 100 N13       29.80F WCI  26
GEORGETOWN     CLOUDY    41  36  82 NE15G24   29.76F
EASTON         CLOUDY    37  37 100 E17G29    29.82F WCI  28
PATUXENT       CLOUDY    39  35  86 N9        29.75F WCI  33
OCEAN CITY     CLOUDY    44  41  89 NE13      29.69F
WALLOPS ISLAND CLOUDY    46  42  86 NE10      29.69F
CAMBRIDGE      CLOUDY    39  34  81 NE8       29.75F WCI  34
SALISBURY      CLOUDY    47  39  74 NE6       29.72F

$$
PAZ001-021-NYZ056-072-MDZ011-DCZ001-261700-
OTHER NEARBY LOCATIONS

CITY           SKY/WX    TMP DP  RH WIND       PRES   REMARKS
HARRISBURG     CLOUDY    24  18  77 NE9       29.87F WCI  14
STATE COLLEGE  LGT SNOW  16  14  93 NE8       29.81S WCI   5
WILLIAMSPORT   LGT SNOW  21  17  84 E7        29.89F VSB 3/4 WCI  12
BINGHAMTON     SNOW      11   7  84 E8        29.86S VSB 1/4 WCI  -1
NEW YORK CITY  LGT SNOW  24  16  71 NE15G22   30.00F WCI  11
BALTIMORE      LGT SNOW  31  28  89 NE12      29.81F VSB 1   WCI  22
WASHINGTON DC  FLURRIES  36  31  82 NE13      29.80F WCI  27

$$


USA.gov is the U.S. government's official web portal to all federal, state and local government web resources and services.